TimeEST,TemperatureF,Dew PointF,Humidity,Sea Level PressureIn,VisibilityMPH,Wind Direction,Wind SpeedMPH,Gust SpeedMPH,PrecipitationIn,Events,Conditions,WindDirDegrees,DateUTC
12:15 AM,40.1,32.7,75,30.24,10.0,Calm,Calm,-,N/A,,Clear,0,2013-01-06 05:15:00
12:35 AM,41.9,31.8,67,30.23,10.0,South,3.5,-,N/A,,Scattered Clouds,190,2013-01-06 05:35:00
12:55 AM,42.3,31.6,66,30.24,10.0,SSW,4.6,-,N/A,Rain,Light Rain,210,2013-01-06 05:55:00
1:15 AM,42.6,31.1,64,30.23,10.0,SSW,4.6,-,N/A,,Overcast,210,2013-01-06 06:15:00
1:35 AM,42.8,30.9,63,30.23,10.0,SW,4.6,-,N/A,,Mostly Cloudy,220,2013-01-06 06:35:00
1:55 AM,42.6,30.9,63,30.24,10.0,SW,4.6,-,N/A,,Overcast,220,2013-01-06 06:55:00
2:15 AM,41.9,32.0,68,30.25,10.0,SW,3.5,-,N/A,Rain,Light Rain,220,2013-01-06 07:15:00
2:35 AM,41.2,32.7,72,30.26,10.0,SW,3.5,-,N/A,Rain,Light Rain,220,2013-01-06 07:35:00
2:55 AM,40.5,33.4,76,30.25,10.0,SSW,3.5,-,N/A,Rain,Light Rain,210,2013-01-06 07:55:00
3:15 AM,40.1,34.2,79,30.24,10.0,Calm,Calm,-,N/A,Rain,Light Rain,0,2013-01-06 08:15:00
3:35 AM,40.6,33.4,75,30.24,10.0,Calm,Calm,-,N/A,Rain,Light Rain,0,2013-01-06 08:35:00
3:55 AM,40.5,34.3,79,30.22,10.0,Calm,Calm,-,N/A,,Light Drizzle,0,2013-01-06 08:55:00
4:15 AM,41.0,33.6,75,30.21,10.0,SSW,3.5,-,N/A,,Overcast,210,2013-01-06 09:15:00
4:35 AM,40.6,33.8,77,30.20,10.0,Calm,Calm,-,N/A,Rain,Light Rain,0,2013-01-06 09:35:00
5:15 AM,41.4,32.9,72,30.19,10.0,Calm,Calm,-,N/A,,Overcast,0,2013-01-06 10:15:00
5:35 AM,41.5,32.5,70,30.18,10.0,South,3.5,-,N/A,,Overcast,190,2013-01-06 10:35:00
5:55 AM,41.5,33.3,72,30.19,10.0,SSW,4.6,-,N/A,,Overcast,200,2013-01-06 10:55:00
6:15 AM,41.9,33.3,71,30.18,10.0,SSW,4.6,-,N/A,,Overcast,210,2013-01-06 11:15:00
6:35 AM,41.9,32.7,70,30.19,10.0,Calm,Calm,-,N/A,,Overcast,0,2013-01-06 11:35:00
6:55 AM,41.9,32.5,69,30.19,10.0,SSW,3.5,-,N/A,,Overcast,210,2013-01-06 11:55:00
7:15 AM,41.5,32.5,70,30.19,10.0,Calm,Calm,-,N/A,,Overcast,0,2013-01-06 12:15:00
7:35 AM,41.4,33.6,74,30.20,10.0,SW,3.5,-,N/A,,Overcast,220,2013-01-06 12:35:00
7:55 AM,41.4,33.8,74,30.21,10.0,Calm,Calm,-,N/A,,Overcast,0,2013-01-06 12:55:00
8:15 AM,41.4,34.0,75,30.21,10.0,Calm,Calm,-,N/A,,Overcast,0,2013-01-06 13:15:00
8:35 AM,41.5,34.5,76,30.21,10.0,Calm,Calm,-,N/A,,Overcast,0,2013-01-06 13:35:00
8:55 AM,41.9,34.5,75,30.21,10.0,Calm,Calm,-,N/A,,Overcast,0,2013-01-06 13:55:00
9:15 AM,42.1,34.2,74,30.21,10.0,SSW,3.5,-,N/A,,Overcast,210,2013-01-06 14:15:00
9:35 AM,42.8,34.5,73,30.22,10.0,SSW,4.6,-,N/A,,Overcast,210,2013-01-06 14:35:00
9:55 AM,43.7,34.2,69,30.21,10.0,South,3.5,-,N/A,,Mostly Cloudy,190,2013-01-06 14:55:00
10:15 AM,43.9,34.0,68,30.21,10.0,SW,3.5,-,N/A,,Mostly Cloudy,220,2013-01-06 15:15:00
10:35 AM,44.4,34.0,67,30.21,10.0,SSW,4.6,-,N/A,,Overcast,200,2013-01-06 15:35:00
10:55 AM,44.8,34.7,68,30.21,10.0,SW,4.6,-,N/A,,Overcast,230,2013-01-06 15:55:00
11:15 AM,44.6,33.8,66,30.19,10.0,Calm,Calm,-,N/A,,Overcast,0,2013-01-06 16:15:00
11:35 AM,44.8,34.2,66,30.18,10.0,SW,3.5,-,N/A,,Overcast,230,2013-01-06 16:35:00
11:55 AM,45.5,34.5,65,30.16,10.0,Calm,Calm,-,N/A,,Overcast,0,2013-01-06 16:55:00
12:15 PM,46.4,34.3,63,30.14,10.0,Calm,Calm,-,N/A,,Mostly Cloudy,0,2013-01-06 17:15:00
12:35 PM,46.8,34.2,62,30.13,10.0,Calm,Calm,-,N/A,,Scattered Clouds,0,2013-01-06 17:35:00
12:55 PM,47.3,33.4,59,30.12,10.0,Calm,Calm,-,N/A,,Scattered Clouds,0,2013-01-06 17:55:00
1:15 PM,47.5,33.8,59,30.12,10.0,South,4.6,-,N/A,,Mostly Cloudy,180,2013-01-06 18:15:00
1:35 PM,48.4,34.5,59,30.11,10.0,Calm,Calm,-,N/A,,Mostly Cloudy,0,2013-01-06 18:35:00
1:55 PM,48.9,34.5,58,30.10,10.0,Calm,Calm,-,N/A,,Mostly Cloudy,0,2013-01-06 18:55:00
2:15 PM,49.1,35.6,60,30.09,10.0,SW,3.5,-,N/A,,Overcast,220,2013-01-06 19:15:00
2:35 PM,48.9,35.8,61,30.09,10.0,Calm,Calm,-,N/A,,Scattered Clouds,0,2013-01-06 19:35:00
2:55 PM,49.1,35.8,60,30.09,10.0,SW,3.5,-,N/A,,Scattered Clouds,220,2013-01-06 19:55:00
3:15 PM,49.5,36.1,60,30.09,10.0,SSW,5.8,-,N/A,,Scattered Clouds,210,2013-01-06 20:15:00
3:35 PM,49.5,36.1,60,30.08,10.0,SSW,5.8,-,N/A,,Clear,200,2013-01-06 20:35:00
3:55 PM,49.3,36.9,62,30.08,10.0,SW,5.8,-,N/A,,Clear,220,2013-01-06 20:55:00
4:15 PM,49.1,37.0,63,30.08,10.0,Calm,Calm,-,N/A,,Clear,0,2013-01-06 21:15:00
4:35 PM,49.1,37.6,64,30.08,10.0,Calm,Calm,-,N/A,,Clear,0,2013-01-06 21:35:00
4:55 PM,48.4,37.8,67,30.08,10.0,Calm,Calm,-,N/A,,Clear,0,2013-01-06 21:55:00
5:15 PM,47.7,37.9,69,30.09,10.0,Calm,Calm,-,N/A,,Clear,0,2013-01-06 22:15:00
5:35 PM,46.0,37.9,73,30.10,10.0,Calm,Calm,-,N/A,,Clear,0,2013-01-06 22:35:00
5:55 PM,44.1,38.3,80,30.10,10.0,Calm,Calm,-,N/A,,Clear,0,2013-01-06 22:55:00
6:15 PM,42.8,38.1,84,30.10,10.0,Calm,Calm,-,N/A,,Clear,0,2013-01-06 23:15:00
6:35 PM,42.3,37.0,82,30.11,10.0,Calm,Calm,-,N/A,,Clear,0,2013-01-06 23:35:00
6:55 PM,41.2,37.6,87,30.12,10.0,Calm,Calm,-,N/A,,Clear,0,2013-01-06 23:55:00
7:15 PM,39.7,36.9,89,30.12,10.0,Calm,Calm,-,N/A,,Clear,0,2013-01-07 00:15:00
7:35 PM,38.8,36.5,91,30.13,10.0,Calm,Calm,-,N/A,,Clear,0,2013-01-07 00:35:00
7:55 PM,38.3,36.3,93,30.14,10.0,Calm,Calm,-,N/A,,Clear,0,2013-01-07 00:55:00
8:15 PM,37.8,35.8,93,30.14,10.0,Calm,Calm,-,N/A,,Scattered Clouds,0,2013-01-07 01:15:00
8:35 PM,37.4,35.6,93,30.15,10.0,Calm,Calm,-,N/A,,Mostly Cloudy,0,2013-01-07 01:35:00
8:55 PM,39.2,37.0,92,30.16,10.0,Calm,Calm,-,N/A,,Overcast,0,2013-01-07 01:55:00
9:15 PM,40.1,36.9,88,30.17,10.0,Calm,Calm,-,N/A,,Mostly Cloudy,0,2013-01-07 02:15:00
9:35 PM,39.7,36.0,86,30.17,10.0,Calm,Calm,-,N/A,,Mostly Cloudy,0,2013-01-07 02:35:00
10:15 PM,39.4,36.3,89,30.19,10.0,Calm,Calm,-,N/A,,Overcast,0,2013-01-07 03:15:00
10:55 PM,39.7,36.7,89,30.20,10.0,Calm,Calm,-,N/A,,Overcast,0,2013-01-07 03:55:00
11:35 PM,39.0,35.8,88,30.21,10.0,Calm,Calm,-,N/A,,Overcast,0,2013-01-07 04:35:00
11:55 PM,39.4,35.6,86,30.22,10.0,Calm,Calm,-,N/A,,Overcast,0,2013-01-07 04:55:00